Regional Weather Roundup
Issued by NWS

Home | Current Version | Previous Version | Text Only | Print | Product List | Glossary On
Versions: 1 2 3 4 5 6 7 8 9 10 11 12 13 14 15 16 17 18 19 20 21 22 23 24 25 26 27 28 29 30 31 32 33 34 35 36 37 38 39 40 41 42 43 44 45 46 47 48 49 50
000
ASUS44 KLUB 301701
RWRTX
WEST TEXAS WEATHER ROUNDUP
NATIONAL WEATHER SERVICE LUBBOCK TX
1100 AM CST FRI JAN 30 2015

NOTE: "FAIR" INDICATES FEW OR NO CLOUDS BELOW 12,000 FEET WITH NO
SIGNIFICANT WEATHER AND/OR OBSTRUCTIONS TO VISIBILITY.

TXZ004-006>008-010-012-014-016-OKZ002-301800-
TEXAS PANHANDLE/OKLAHOMA PANHANDLE

CITY           SKY/WX    TMP DP  RH WIND       PRES   REMARKS
AMARILLO       CLOUDY    38  27  64 S14       30.42F WCI  30
BORGER         CLOUDY    41  26  55 S13       30.43S
CANADIAN       CLOUDY    43  29  57 S9        30.45F
DALHART        CLOUDY    40  28  62 S13       30.38F WCI  32
GUYMON         CLOUDY    40  28  62 S14       30.39S WCI  32
$$

TXZ026-029-035-045-048-301800-
SOUTHERN PANHANDLE/SOUTH PLAINS/ROLLING PLAINS

CITY           SKY/WX    TMP DP  RH WIND       PRES   REMARKS
CHILDRESS      CLOUDY    42  29  59 E6        30.50R
LUBBOCK        CLOUDY    40  26  57 E14       30.43R WCI  32
$$

TXZ052-054-060>062-072-078-127-140-154-169-301800-
PERMIAN BASIN/CONCHO VALLEY/BIG COUNTRY/EDWARDS PLATEAU

CITY           SKY/WX    TMP DP  RH WIND       PRES   REMARKS
ABILENE        CLOUDY    44  29  55 E12       30.46S
BROWNWOOD      CLOUDY    45  32  61 E10       30.46F
JUNCTION       PTSUNNY   49  33  54 E12       30.42S
MIDLAND        CLOUDY    43  30  60 E13       30.40F
ODESSA         CLOUDY    43  29  57 E14       30.40F
SAN ANGELO     CLOUDY    47  32  56 E10       30.43F
WINK           CLOUDY    45  28  51 E9        30.38S
$$

TXZ055-058-074-075-080-082-301800-
FAR WEST/SOUTHWEST MOUNTAINS/TRANS PECOS

CITY           SKY/WX    TMP DP  RH WIND       PRES   REMARKS
DRYDEN           N/A     51  33  50 E12       30.36F
EL PASO        CLOUDY    44  36  73 E9        30.25R
FORT STOCKTON  CLOUDY    46  32  58 E10       30.36F
GUADALUPE PASS FOG       31  30  96 NE38      30.25R VSB 3/4 WCI  15
MARFA          CLOUDY    43  32  65 NE12G17   30.31F
$$

TXZ014-016-019-021>030-083-301800
TEXAS TECH WEST TEXAS MESONET/TEXAS PANHANDLE/NORTHERN SOUTH PLAINS

CITY           SKY/WX    TMP DP  RH WIND       PRES   REMARKS
AMARILLO 9NNE    N/A     38  27  63 S15       30.42S WCI  29
AMARILLO 7SSE    N/A     38  27  64 SE10      30.42F WCI  30
AMHERST 1NE      N/A     37  26  64 SE10      30.42S WCI  30
BOOTLEG 11WNW    N/A     36  27  68 S12       30.41R WCI  28
CANADIAN 6E      N/A     42  27  55 S10       30.45S
CAPROCK CYN SP   N/A     40  28  62 SE8       30.47S WCI  34
CLARENDON 2WSW   N/A     39  27  60 SE7       30.46S WCI  34
CLAUDE 12SW      N/A     37  26  65 S9        30.43S WCI  30
DIMMITT 2NE      N/A     36  27  67 SE10      30.41S WCI  29
FLOYDADA 2NNE    N/A     38  25  60 E9        30.44S WCI  32
FRIONA 2NE       N/A     37  28  72 S13       30.42R WCI  28
GOODLETT 3W      N/A     42  29  60 E8        30.50R
HART 3N          N/A     36  27  70 E10       30.41F WCI  29
HEREFORD 2NW     N/A     38  26  62 SE7       30.40F WCI  32
MCLEAN 1E        N/A     39  26  59 SE8       30.44F WCI  33
MEMPHIS 1NE      N/A     42  28  59 E5        30.49F
MULESHOE 2SSW    N/A     38  26  62 SE9       30.42S WCI  32
OLTON 6S         N/A     37  27  65 SE9       30.43R WCI  31
PALO DURO SP     N/A     37  26  62 SE7       30.44S WCI  32
PAMPA 2E         N/A     38  27  64 SE10      30.43F WCI  31
PLAINVIEW 1S     N/A     37  28  67 SE7       30.43S WCI  32
SILVERTON 7ESE   N/A     38  26  61 SE9       30.45S WCI  32
TULIA 2ENE       N/A     37  28  72 SE10      30.43S WCI  29
TURKEY 2WSW      N/A     41  29  62 E8        30.47S
UMBARGER 3NNE    N/A     37  27  65 S10       30.42S WCI  30
$$

TXZ033>036-039>041-045>048-301800
TEXAS TECH WEST TEXAS MESONET/SOUTH PLAINS

CITY           SKY/WX    TMP DP  RH WIND       PRES   REMARKS
AIKEN 3WSW       N/A     38  27  64 SE9       30.45S WCI  31
ANDREWS 2NE      N/A     41  29  60 E13       30.40F
ANTON 6SSW       N/A     38  28  65 E10       30.43S WCI  31
BROWNFIELD 2S    N/A     39  26  60 E13       30.42S WCI  31
DENVR CTY 7WNW   N/A     37  25  62 E13       30.40S WCI  29
GAIL 2ESE        N/A     42  29  59 E8        30.44S
LAMESA 2SE       N/A     41  29  63 E12       30.43F
LEVELLAND 4S     N/A     38  25  60 E12       30.42S WCI  30
LUBBOCK 3WNW     N/A     39  26  57 E9        30.44R WCI  33
MORTON 1ENE      N/A     37  27  67 E10       30.41F WCI  30
ODONNELL 1N      N/A     40  28  62 E12       30.43F WCI  32
PLAINS 3N        N/A     37  26  63 E10       30.41S WCI  30
RALLS 1SE        N/A     39  27  62 E12       30.45S WCI  31
REESE CENTER     N/A     38  26  61 E9        30.43R WCI  32
SEAGRAVES 1SW    N/A     39  27  62 E8        30.41F WCI  33
SEMINOLE 2NNE    N/A     40  26  58 E14       30.41F WCI  32
SLATON 2NE       N/A     39  28  63 E12       30.44S WCI  32
SNYDER 3E        N/A     42  30  62 E10       30.45R
SUNDOWN 8SW      N/A     38  26  62 E10       30.41S WCI  31
TAHOKA 3NNE      N/A     40  27  59 E13       30.43S WCI  33
WOLFFORTH 6SSW   N/A     39  27  60 E14       30.43S WCI  31
$$

TXZ031-032-036>038-042>044-301800-
TEXAS TECH WEST TEXAS MESONET/ROLLING PLAINS

CITY           SKY/WX    TMP DP  RH WIND       PRES   REMARKS
ASPERMONT 3NE    N/A     43  30  61 E7        30.49R
FLUVANNA 3WNW    N/A     40  28  61 E13       30.44F WCI  33
GRAHAM 5SSW      N/A     39  28  62 E13       30.44S WCI  32
GUTHRIE 10WSW    N/A     42  29  61 E6        30.48S
HASKELL 1NW      N/A     42  29  60 E9        30.49R
JAYTON 1SSE      N/A     42  29  61 E10       30.47F
KNOX CITY 3NW    N/A     43  29  56 E10       30.50S
LK A HENRY 1NW   N/A     42  28  58 E12       30.46S
NORTHFIELD 1S    N/A     42  29  59 E6        30.49S
ODELL 4ENE       N/A     43  29  56 E8        30.51S
PADUCAH 10SW     N/A     41  29  63 E6        30.48S
POST 1NE         N/A     42  28  58 E10       30.45
RRING SPRGS 3N   N/A     40  29  65 E7        30.46S
SEYMOUR 3NW      N/A     43  29  58 NE8       30.50S
SPUR 1W          N/A     40  28  61 E8        30.46S WCI  35
WEINERT 2NNE     N/A     44  29  56 E10       30.50S
WHITE RVR 6NE    N/A     40  27  60 E9        30.45S WCI  33
$$

TXZ052-054-060>062-072-078-127-140-154-169-301800-
TEXAS TECH WEST TEXAS MESONET/PERMIAN BASIN/
CONCHO VALLEY/BIG COUNTRY/EDWARDS PLATEAU

CITY           SKY/WX    TMP DP  RH WIND       PRES   REMARKS
COYANOSA 2N      N/A     47  31  54 NE8       30.38F
JUNCTION 1SSW    N/A     49  33  54 NE10      30.43S
MERTZON 3NNE     N/A     44  31  61 E8        30.44F
SAN ANGELO 7NW   N/A     46  30  54 E14       30.44F
STRLNG CT 4WSW   N/A     42  29  60 E8        30.45R
ST LAWRNCE 5SW   N/A     42  30  63 E10       30.41F
SWEETWATR 11SW   N/A     42  30  63 E10       30.44F
WALL 1E          N/A     45  32  60 E13       30.45S
$$

TXZ055-058-074-075-080-082-301800-
TEXAS TECH WEST TEXAS MESONET/FAR WEST/SOUTHWEST MOUNTAINS/TRANS PECOS

CITY           SKY/WX    TMP DP  RH WIND       PRES   REMARKS
PRSMN GAP BBNP   N/A     48  32  53 NE25      30.30F
$$


USA.gov is the U.S. government's official web portal to all federal, state and local government web resources and services.